• en France
  • Liste des pays
  • À 7 jours
  • Température de l'eau
  • Carte satellitaire
  • Carte météo
  • Widgets météo
  • user-avatar
    Se connecter

    Météo par heure à Swansea

    Ce jour, 22 Juillet, Dimanche

    Heure Température Précipitation Vent Pression Humidité
    00:00 +17°C° 0 mm 2 m/s 761 mmHg 79%
    01:00 +17°C° 0 mm 2 m/s 761 mmHg 80%
    02:00 +16°C° 0 mm 2 m/s 761 mmHg 81%
    03:00 +16°C° 0 mm 2 m/s 761 mmHg 83%
    04:00 +16°C° 0 mm 2 m/s 761 mmHg 84%
    05:00 +17°C° 0 mm 2 m/s 761 mmHg 85%
    06:00 +17°C° 0 mm 2 m/s 761 mmHg 86%
    07:00 +19°C° 0 mm 2 m/s 761 mmHg 83%
    08:00 +20°C° 0 mm 2 m/s 761 mmHg 80%
    09:00 +23°C° 0 mm 2 m/s 761 mmHg 77%
    10:00 +23°C° 0 mm 2 m/s 761 mmHg 77%
    11:00 +24°C° 0 mm 2 m/s 761 mmHg 76%
    12:00 +24°C° 0 mm 2 m/s 761 mmHg 75%
    13:00 +25°C° 0 mm 3 m/s 761 mmHg 74%
    14:00 +25°C° 0 mm 3 m/s 761 mmHg 74%
    15:00 +26°C° 0 mm 3 m/s 761 mmHg 74%
    16:00 +25°C° 0 mm 4 m/s 761 mmHg 76%
    17:00 +25°C° 0 mm 4 m/s 761 mmHg 79%
    18:00 +23°C° 0 mm 4 m/s 761 mmHg 82%
    19:00 +22°C° 0 mm 3 m/s 761 mmHg 86%
    20:00 +20°C° 0 mm 3 m/s 761 mmHg 91%
    21:00 +19°C° 0 mm 3 m/s 761 mmHg 95%
    22:00 +18°C° 0 mm 2 m/s 761 mmHg 95%
    23:00 +18°C° 0 mm 2 m/s 761 mmHg 96%

    Demain, 23 Juillet, Lundi

    Heure Température Précipitation Vent Pression Humidité
    00:00 +18°C° 0 mm 2 m/s 762 mmHg 96%
    01:00 +17°C° 0 mm 2 m/s 761 mmHg 96%
    02:00 +17°C° 0 mm 2 m/s 761 mmHg 96%
    03:00 +17°C° 0 mm 2 m/s 761 mmHg 97%
    04:00 +18°C° 0 mm 2 m/s 761 mmHg 96%
    05:00 +18°C° 0 mm 2 m/s 761 mmHg 96%
    06:00 +19°C° 0 mm 2 m/s 761 mmHg 96%
    07:00 +19°C° 0 mm 3 m/s 761 mmHg 93%
    08:00 +20°C° 0 mm 3 m/s 761 mmHg 91%
    09:00 +21°C° 0 mm 3 m/s 761 mmHg 89%
    10:00 +21°C° 0 mm 3 m/s 761 mmHg 87%
    11:00 +21°C° 0 mm 3 m/s 761 mmHg 86%
    12:00 +22°C° 0 mm 3 m/s 761 mmHg 85%
    13:00 +22°C° 0 mm 3 m/s 761 mmHg 82%
    14:00 +23°C° 0 mm 4 m/s 760 mmHg 79%
    15:00 +23°C° 0 mm 4 m/s 760 mmHg 77%
    16:00 +23°C° 0 mm 4 m/s 760 mmHg 77%
    17:00 +22°C° 0 mm 4 m/s 760 mmHg 78%
    18:00 +22°C° 0 mm 4 m/s 760 mmHg 78%
    19:00 +20°C° 0 mm 3 m/s 760 mmHg 84%
    20:00 +19°C° 0 mm 3 m/s 760 mmHg 89%
    21:00 +17°C° 0 mm 2 m/s 760 mmHg 95%
    22:00 +17°C° 0 mm 2 m/s 760 mmHg 95%
    23:00 +16°C° 0 mm 2 m/s 760 mmHg 96%

    Après-demain, 24 Juillet, Mardi

    Heure Température Précipitation Vent Pression Humidité
    00:00 +16°C° 0 mm 2 m/s 760 mmHg 96%
    01:00 +16°C° 0 mm 2 m/s 760 mmHg 96%
    02:00 +16°C° 0 mm 2 m/s 760 mmHg 97%
    03:00 +15°C° 0 mm 2 m/s 759 mmHg 97%
    04:00 +16°C° 0 mm 2 m/s 759 mmHg 96%
    05:00 +16°C° 0 mm 2 m/s 759 mmHg 96%
    06:00 +17°C° 0 mm 2 m/s 759 mmHg 95%
    07:00 +18°C° 0 mm 2 m/s 759 mmHg 91%
    08:00 +19°C° 0 mm 2 m/s 760 mmHg 87%
    09:00 +20°C° 0 mm 3 m/s 760 mmHg 82%
    10:00 +21°C° 0,1 mm 3 m/s 760 mmHg 81%
    11:00 +21°C° 0,1 mm 3 m/s 760 mmHg 80%
    12:00 +22°C° 0,1 mm 3 m/s 760 mmHg 78%
    13:00 +22°C° 0,1 mm 3 m/s 760 mmHg 77%
    14:00 +22°C° 0,1 mm 3 m/s 760 mmHg 77%
    15:00 +22°C° 0,1 mm 4 m/s 760 mmHg 76%
    16:00 +22°C° 0 mm 4 m/s 760 mmHg 77%
    17:00 +21°C° 0 mm 3 m/s 760 mmHg 77%
    18:00 +21°C° 0 mm 3 m/s 760 mmHg 78%
    19:00 +19°C° 0 mm 3 m/s 760 mmHg 83%
    20:00 +17°C° 0 mm 3 m/s 760 mmHg 87%
    21:00 +16°C° 0 mm 2 m/s 761 mmHg 92%
    22:00 +15°C° 0 mm 2 m/s 761 mmHg 92%
    23:00 +15°C° 0 mm 2 m/s 761 mmHg 92%

    25 Juillet, Mercredi

    Heure Température Précipitation Vent Pression Humidité
    00:00 +14°C° 0 mm 2 m/s 761 mmHg 92%
    01:00 +14°C° 0 mm 2 m/s 761 mmHg 92%
    02:00 +14°C° 0 mm 2 m/s 761 mmHg 92%
    03:00 +14°C° 0 mm 1 m/s 761 mmHg 92%
    04:00 +14°C° 0 mm 1 m/s 761 mmHg 91%
    05:00 +15°C° 0 mm 1 m/s 761 mmHg 90%
    06:00 +15°C° 0 mm 1 m/s 761 mmHg 89%
    07:00 +18°C° 0 mm 1 m/s 761 mmHg 83%
    08:00 +20°C° 0 mm 1 m/s 761 mmHg 77%
    09:00 +22°C° 0 mm 1 m/s 761 mmHg 71%
    10:00 +23°C° 0 mm 1 m/s 760 mmHg 68%
    11:00 +24°C° 0 mm 1 m/s 760 mmHg 65%
    12:00 +25°C° 0 mm 2 m/s 760 mmHg 61%
    13:00 +25°C° 0 mm 2 m/s 760 mmHg 62%
    14:00 +25°C° 0 mm 2 m/s 760 mmHg 62%
    15:00 +25°C° 0 mm 2 m/s 759 mmHg 62%
    16:00 +24°C° 0 mm 3 m/s 759 mmHg 65%
    17:00 +24°C° 0 mm 3 m/s 759 mmHg 68%
    18:00 +22°C° 0 mm 3 m/s 759 mmHg 71%
    19:00 +20°C° 0 mm 3 m/s 759 mmHg 77%
    20:00 +19°C° 0 mm 2 m/s 759 mmHg 83%
    21:00 +17°C° 0 mm 2 m/s 759 mmHg 89%
    22:00 +16°C° 0 mm 2 m/s 759 mmHg 90%
    23:00 +16°C° 0 mm 2 m/s 760 mmHg 90%

    26 Juillet, Jeudi

    Heure Température Précipitation Vent Pression Humidité
    00:00 +15°C° 0 mm 2 m/s 760 mmHg 90%
    01:00 +15°C° 0 mm 2 m/s 760 mmHg 91%
    02:00 +15°C° 0 mm 2 m/s 760 mmHg 92%
    03:00 +15°C° 0 mm 2 m/s 760 mmHg 92%
    04:00 +15°C° 0 mm 2 m/s 760 mmHg 92%
    05:00 +16°C° 0 mm 2 m/s 760 mmHg 92%
    06:00 +17°C° 0 mm 2 m/s 760 mmHg 93%
    07:00 +18°C° 0 mm 2 m/s 761 mmHg 88%
    08:00 +19°C° 0 mm 2 m/s 761 mmHg 83%
    09:00 +20°C° 0 mm 3 m/s 761 mmHg 78%
    10:00 +21°C° 0 mm 3 m/s 761 mmHg 74%
    11:00 +23°C° 0 mm 2 m/s 761 mmHg 71%
    12:00 +24°C° 0 mm 2 m/s 761 mmHg 67%
    13:00 +24°C° 0 mm 2 m/s 761 mmHg 67%
    14:00 +25°C° 0 mm 2 m/s 761 mmHg 66%
    15:00 +25°C° 0 mm 2 m/s 761 mmHg 65%
    16:00 +25°C° 0 mm 2 m/s 761 mmHg 68%
    17:00 +24°C° 0 mm 2 m/s 761 mmHg 70%
    18:00 +24°C° 0 mm 2 m/s 761 mmHg 73%
    19:00 +21°C° 0 mm 2 m/s 761 mmHg 78%
    20:00 +19°C° 0 mm 2 m/s 761 mmHg 84%
    21:00 +18°C° 0 mm 1 m/s 761 mmHg 89%
    22:00 +18°C° 0 mm 1 m/s 761 mmHg 89%
    23:00 +18°C° 0 mm 1 m/s 761 mmHg 90%

    27 Juillet, Vendredi

    Heure Température Précipitation Vent Pression Humidité
    00:00 +16°C° 0 mm 1 m/s 761 mmHg 90%
    01:00 +16°C° 0 mm 1 m/s 761 mmHg 90%
    02:00 +16°C° 0 mm 1 m/s 760 mmHg 90%
    03:00 +16°C° 0 mm 1 m/s 760 mmHg 90%
    04:00 +16°C° 0 mm 1 m/s 760 mmHg 88%
    05:00 +18°C° 0 mm 1 m/s 760 mmHg 87%
    06:00 +19°C° 0 mm 1 m/s 760 mmHg 86%
    07:00 +20°C° 0 mm 1 m/s 760 mmHg 80%
    08:00 +22°C° 0 mm 1 m/s 760 mmHg 73%
    09:00 +24°C° 0 mm 1 m/s 760 mmHg 67%
    10:00 +25°C° 0 mm 1 m/s 760 mmHg 63%
    11:00 +26°C° 0 mm 1 m/s 759 mmHg 59%
    12:00 +27°C° 0 mm 1 m/s 759 mmHg 55%
    13:00 +27°C° 0 mm 2 m/s 759 mmHg 55%
    14:00 +27°C° 0 mm 2 m/s 759 mmHg 55%
    15:00 +27°C° 0 mm 2 m/s 759 mmHg 56%
    16:00 +27°C° 0 mm 3 m/s 759 mmHg 60%
    17:00 +26°C° 0 mm 3 m/s 759 mmHg 64%
    18:00 +25°C° 0 mm 3 m/s 759 mmHg 68%
    19:00 +22°C° 0 mm 3 m/s 759 mmHg 75%
    20:00 +20°C° 0 mm 3 m/s 759 mmHg 82%
    21:00 +18°C° 0 mm 3 m/s 759 mmHg 89%
    22:00 +18°C° 0 mm 3 m/s 759 mmHg 91%
    23:00 +18°C° 0 mm 3 m/s 759 mmHg 92%
    Voir plus